Terminal Aerodrome Forecast
Issued by NWS Atlanta, GA

Home | Current Version | Previous Version | Text Only | Print | Product List | Glossary On
Versions: 1 2 3 4 5 6 7 8 9 10 11 12 13 14 15 16 17 18 19 20 21 22 23 24 25 26 27 28 29 30 31 32 33 34 35
000
FTUS42 KFFC 261120
TAFATL
TAF
KATL 261120Z 2612/2718 00000KT P6SM SCT250
     FM261500 09003KT P6SM SCT200
     FM270000 11003KT P6SM SCT150
     FM270900 07003KT P6SM BKN090
     FM271500 12005KT P6SM SCT045 BKN080=

USA.gov is the U.S. government's official web portal to all federal, state and local government web resources and services.